Weather History for KFHU - February, 2012

Change the Weather History Date:

Sunday, February 12, 2012

  Actual Average Record
Temperature  
Mean Temperature 51 °F -  
Max Temperature 60 °F 60 °F 78 °F (1990)
Min Temperature 42 °F 39 °F 23 °F (1986)
Degree Days  
Heating Degree Days 14    
Growing Degree Days 1 (Base 50)    
Moisture  
Dew Point 25 °F    
Average Humidity 37    
Maximum Humidity 60    
Minimum Humidity 21    
Precipitation  
Precipitation 0.00 in - - ()
Sea Level Pressure  
Sea Level Pressure 29.83 in    
Wind  
Wind Speed 12 mph (SW)    
Max Wind Speed 25 mph    
Max Gust Speed 40 mph    
Visibility 10 miles    
Events      
Averages and records for this station are not official NWS values.
T = Trace of Precipitation, MM = Missing Value Source: NWS Daily Summary

Daily Weather History Graph

Daily Weather History Graph

Search for Another Location

Airport or City:

Trip Planner

Search our weather history database for the weather conditions in past years. The results will help you decide how hot, cold, wet, or windy it might be!

Date:

Astronomy

Feb. 12, 2012 Rise Set
Actual Time 7:06 AM MST 6:05 PM MST
Civil Twilight 6:41 AM MST 6:30 PM MST
Nautical Twilight 6:12 AM MST 6:59 PM MST
Astronomical Twilight 5:44 AM MST 7:27 PM MST
Moon 11:39 PM MST (2/12) 9:52 AM MST (2/12)
Length of Visible Light 11h 49m
Length of Day
10h 59m
Waning Gibbous, 71% of the Moon is Illuminated
Feb 12
Waning Gibbous
Feb 14
Last Quarter
Feb 21
New
Feb 29
First Quarter
Mar 8
Full

Hourly Weather History & Observations

Time (MST) Temp. Windchill Dew Point Humidity Pressure Visibility Wind Dir Wind Speed Gust Speed Precip Events Conditions
12:56 AM 54.0 °F - 30.0 °F 40% 29.83 in 10.0 mi SSE 6.9 mph - N/A   Clear
1:56 AM 52.0 °F - 26.1 °F 37% 29.81 in 10.0 mi SE 11.5 mph - N/A   Clear
2:56 AM 52.0 °F - 26.1 °F 37% 29.80 in 10.0 mi ESE 10.4 mph - N/A   Clear
3:56 AM 50.0 °F - 26.1 °F 39% 29.81 in 10.0 mi Calm Calm - N/A   Clear
4:56 AM 52.0 °F - 27.0 °F 38% 29.79 in 10.0 mi Variable 4.6 mph 23.0 mph N/A   Clear
5:56 AM 52.0 °F - 28.9 °F 41% 29.80 in 10.0 mi South 9.2 mph 20.7 mph N/A   Clear
6:56 AM 51.1 °F - 28.9 °F 43% 29.82 in 10.0 mi South 13.8 mph 18.4 mph N/A   Clear
7:56 AM 51.1 °F - 30.0 °F 44% 29.81 in 10.0 mi SSW 16.1 mph 26.5 mph N/A   Clear
8:56 AM 54.0 °F - 27.0 °F 35% 29.79 in 10.0 mi South 25.3 mph 36.8 mph N/A   Clear
9:56 AM 57.0 °F - 24.1 °F 28% 29.82 in 10.0 mi SW 20.7 mph 32.2 mph N/A   Clear
10:56 AM 57.9 °F - 21.9 °F 25% 29.86 in 10.0 mi WSW 20.7 mph 25.3 mph N/A   Clear
11:56 AM 59.0 °F - 23.0 °F 25% 29.83 in 10.0 mi SW 19.6 mph 25.3 mph N/A   Clear
12:56 PM 59.0 °F - 19.9 °F 22% 29.81 in 10.0 mi SW 18.4 mph 32.2 mph N/A   Clear
1:56 PM 60.1 °F - 19.9 °F 21% 29.78 in 10.0 mi SW 25.3 mph 36.8 mph N/A   Clear
2:56 PM 60.1 °F - 21.9 °F 23% 29.77 in 10.0 mi WSW 25.3 mph 40.3 mph N/A   Clear
3:56 PM 59.0 °F - 19.9 °F 22% 29.78 in 10.0 mi West 23.0 mph 31.1 mph N/A   Clear
4:56 PM 55.9 °F - 21.0 °F 26% 29.80 in 10.0 mi WSW 18.4 mph 29.9 mph N/A   Clear
5:56 PM 52.0 °F - 21.9 °F 31% 29.83 in 10.0 mi West 23.0 mph 32.2 mph N/A   Clear
6:56 PM 50.0 °F - 24.1 °F 36% 29.86 in 10.0 mi West 17.3 mph 26.5 mph N/A   Clear
7:56 PM 46.0 °F 41.4 °F 25.0 °F 44% 29.90 in 10.0 mi West 9.2 mph - N/A   Clear
8:56 PM 45.0 °F 41.2 °F 26.1 °F 48% 29.91 in 10.0 mi WSW 6.9 mph - N/A   Clear
9:56 PM 42.1 °F 37.7 °F 26.1 °F 53% 29.92 in 10.0 mi West 6.9 mph - N/A   Clear
10:56 PM 43.0 °F 41.3 °F 28.9 °F 58% 29.93 in 10.0 mi West 3.5 mph - N/A   Clear
11:56 PM 42.1 °F 39.2 °F 28.9 °F 60% 29.94 in 10.0 mi SW 4.6 mph - N/A   Clear